Year,Month,Day,Hour,Minute,Value (Times are PST for temperature in C)
2006,04,17,00,00,3.40
2006,04,17,00,01,3.40
2006,04,17,00,02,3.30
2006,04,17,00,03,3.30
2006,04,17,00,04,3.30
2006,04,17,00,05,3.30
2006,04,17,00,06,3.30
2006,04,17,00,07,3.30
2006,04,17,00,08,3.30
2006,04,17,00,09,3.30
2006,04,17,00,10,3.30
2006,04,17,00,11,3.30
2006,04,17,00,12,3.20
2006,04,17,00,13,3.20
2006,04,17,00,14,3.20
2006,04,17,00,15,3.20
2006,04,17,00,16,3.20
2006,04,17,00,17,3.20
2006,04,17,00,18,3.20
2006,04,17,00,19,3.20
2006,04,17,00,20,3.20
2006,04,17,00,21,3.20
2006,04,17,00,22,3.20
2006,04,17,00,23,3.20
2006,04,17,00,24,3.20
2006,04,17,00,25,3.20
2006,04,17,00,26,3.20
2006,04,17,00,27,3.20
2006,04,17,00,28,3.20
2006,04,17,00,29,3.20
2006,04,17,00,30,3.20
2006,04,17,00,31,3.20
2006,04,17,00,32,3.20
2006,04,17,00,33,3.30
2006,04,17,00,34,3.30
2006,04,17,00,35,3.30
2006,04,17,00,36,3.30
2006,04,17,00,37,3.20
2006,04,17,00,38,3.20
2006,04,17,00,39,3.20
2006,04,17,00,40,3.20
2006,04,17,00,41,3.20
2006,04,17,00,42,3.20
2006,04,17,00,43,3.10
2006,04,17,00,44,3.10
2006,04,17,00,45,3.10
2006,04,17,00,46,3.00
2006,04,17,00,47,2.90
2006,04,17,00,48,2.90
2006,04,17,00,49,2.90
2006,04,17,00,50,2.80
2006,04,17,00,51,2.80
2006,04,17,00,52,2.70
2006,04,17,00,53,2.70
2006,04,17,00,54,2.70
2006,04,17,00,55,2.70
2006,04,17,00,56,2.70
2006,04,17,00,57,2.70
2006,04,17,00,58,2.70
2006,04,17,00,59,2.70
2006,04,17,01,00,2.70
2006,04,17,01,01,2.70
2006,04,17,01,02,2.70
2006,04,17,01,03,2.70
2006,04,17,01,04,2.70
2006,04,17,01,05,2.70
2006,04,17,01,06,2.70
2006,04,17,01,07,2.70
2006,04,17,01,08,2.70
2006,04,17,01,09,2.70
2006,04,17,01,10,2.70
2006,04,17,01,11,2.70
2006,04,17,01,12,2.70
2006,04,17,01,13,2.70
2006,04,17,01,14,2.70
2006,04,17,01,15,2.70
2006,04,17,01,16,2.70
2006,04,17,01,17,2.70
2006,04,17,01,18,2.70
2006,04,17,01,19,2.70
2006,04,17,01,20,2.70
2006,04,17,01,21,2.70
2006,04,17,01,22,2.70
2006,04,17,01,23,2.70
2006,04,17,01,24,2.70
2006,04,17,01,25,2.70
2006,04,17,01,26,2.70
2006,04,17,01,27,2.70
2006,04,17,01,28,2.60
2006,04,17,01,29,2.50
2006,04,17,01,30,2.50
2006,04,17,01,31,2.40
2006,04,17,01,32,2.30
2006,04,17,01,33,2.20
2006,04,17,01,34,2.20
2006,04,17,01,35,2.20
2006,04,17,01,36,2.20
2006,04,17,01,37,2.10
2006,04,17,01,38,2.10
2006,04,17,01,39,2.10
2006,04,17,01,40,2.20
2006,04,17,01,41,2.20
2006,04,17,01,42,2.20
2006,04,17,01,43,2.20
2006,04,17,01,44,2.30
2006,04,17,01,45,2.30
2006,04,17,01,46,2.30
2006,04,17,01,47,2.40
2006,04,17,01,48,2.50
2006,04,17,01,49,2.50
2006,04,17,01,50,2.50
2006,04,17,01,51,2.60
2006,04,17,01,52,2.60
2006,04,17,01,53,2.60
2006,04,17,01,54,2.60
2006,04,17,01,55,2.60
2006,04,17,01,56,2.60
2006,04,17,01,57,2.60
2006,04,17,01,58,2.50
2006,04,17,01,59,2.50
2006,04,17,02,00,2.50
2006,04,17,02,01,2.50
2006,04,17,02,02,2.50
2006,04,17,02,03,2.30
2006,04,17,02,04,2.20
2006,04,17,02,05,2.10
2006,04,17,02,06,2.00
2006,04,17,02,07,1.90
2006,04,17,02,08,1.80
2006,04,17,02,09,1.80
2006,04,17,02,10,1.80
2006,04,17,02,11,1.80
2006,04,17,02,12,1.80
2006,04,17,02,13,1.80
2006,04,17,02,14,1.70
2006,04,17,02,15,1.70
2006,04,17,02,16,1.60
2006,04,17,02,17,1.60
2006,04,17,02,18,1.60
2006,04,17,02,19,1.60
2006,04,17,02,20,1.70
2006,04,17,02,21,1.70
2006,04,17,02,22,1.70
2006,04,17,02,23,1.70
2006,04,17,02,24,1.60
2006,04,17,02,25,1.60
2006,04,17,02,26,1.60
2006,04,17,02,27,1.50
2006,04,17,02,28,1.50
2006,04,17,02,29,1.50
2006,04,17,02,30,1.50
2006,04,17,02,31,1.60
2006,04,17,02,32,1.60
2006,04,17,02,33,1.60
2006,04,17,02,34,1.60
2006,04,17,02,35,1.70
2006,04,17,02,36,1.70
2006,04,17,02,37,1.70
2006,04,17,02,38,1.70
2006,04,17,02,39,1.70
2006,04,17,02,40,1.70
2006,04,17,02,41,1.60
2006,04,17,02,42,1.60
2006,04,17,02,43,1.60
2006,04,17,02,44,1.50
2006,04,17,02,45,1.40
2006,04,17,02,46,1.30
2006,04,17,02,47,1.30
2006,04,17,02,48,1.30
2006,04,17,02,49,1.30
2006,04,17,02,50,1.30
2006,04,17,02,51,1.30
2006,04,17,02,52,1.30
2006,04,17,02,53,1.30
2006,04,17,02,54,1.30
2006,04,17,02,55,1.30
2006,04,17,02,56,1.30
2006,04,17,02,57,1.30
2006,04,17,02,58,1.30
2006,04,17,02,59,1.30
2006,04,17,03,00,1.30
2006,04,17,03,01,1.30
2006,04,17,03,02,1.30
2006,04,17,03,03,1.30
2006,04,17,03,04,1.30
2006,04,17,03,05,1.30
2006,04,17,03,06,1.30
2006,04,17,03,07,1.30
2006,04,17,03,08,1.30
2006,04,17,03,09,1.30
2006,04,17,03,10,1.30
2006,04,17,03,11,1.40
2006,04,17,03,12,1.40
2006,04,17,03,13,1.50
2006,04,17,03,14,1.50
2006,04,17,03,15,1.50
2006,04,17,03,16,1.60
2006,04,17,03,17,1.60
2006,04,17,03,18,1.60
2006,04,17,03,19,1.60
2006,04,17,03,20,1.70
2006,04,17,03,21,1.70
2006,04,17,03,22,1.70
2006,04,17,03,23,1.70
2006,04,17,03,24,1.60
2006,04,17,03,25,1.60
2006,04,17,03,26,1.50
2006,04,17,03,27,1.40
2006,04,17,03,28,1.30
2006,04,17,03,29,1.30
2006,04,17,03,30,1.20
2006,04,17,03,31,1.10
2006,04,17,03,32,1.00
2006,04,17,03,33,1.00
2006,04,17,03,34,1.00
2006,04,17,03,35,0.90
2006,04,17,03,36,0.90
2006,04,17,03,37,1.00
2006,04,17,03,38,1.00
2006,04,17,03,39,1.10
2006,04,17,03,40,1.20
2006,04,17,03,41,1.30
2006,04,17,03,42,1.30
2006,04,17,03,43,1.40
2006,04,17,03,44,1.50
2006,04,17,03,45,1.60
2006,04,17,03,46,1.70
2006,04,17,03,47,1.70
2006,04,17,03,48,1.70
2006,04,17,03,49,1.80
2006,04,17,03,50,1.80
2006,04,17,03,51,1.80
2006,04,17,03,52,1.80
2006,04,17,03,53,1.80
2006,04,17,03,54,1.80
2006,04,17,03,55,1.70
2006,04,17,03,56,1.60
2006,04,17,03,57,1.50
2006,04,17,03,58,1.40
2006,04,17,03,59,1.40
2006,04,17,04,00,1.30
2006,04,17,04,01,1.30
2006,04,17,04,02,1.30
2006,04,17,04,03,1.30
2006,04,17,04,04,1.30
2006,04,17,04,05,1.40
2006,04,17,04,06,1.50
2006,04,17,04,07,1.60
2006,04,17,04,08,1.60
2006,04,17,04,09,1.60
2006,04,17,04,10,1.70
2006,04,17,04,11,1.70
2006,04,17,04,12,1.70
2006,04,17,04,13,1.70
2006,04,17,04,14,1.80
2006,04,17,04,15,1.80
2006,04,17,04,16,1.80
2006,04,17,04,17,1.80
2006,04,17,04,18,1.80
2006,04,17,04,19,1.80
2006,04,17,04,20,1.90
2006,04,17,04,21,1.90
2006,04,17,04,22,1.90
2006,04,17,04,23,1.90
2006,04,17,04,24,1.90
2006,04,17,04,25,1.90
2006,04,17,04,26,1.90
2006,04,17,04,27,2.00
2006,04,17,04,28,2.00
2006,04,17,04,29,2.00
2006,04,17,04,30,2.00
2006,04,17,04,31,1.90
2006,04,17,04,32,1.90
2006,04,17,04,33,1.90
2006,04,17,04,34,1.80
2006,04,17,04,35,1.80
2006,04,17,04,36,1.80
2006,04,17,04,37,1.80
2006,04,17,04,38,1.80
2006,04,17,04,39,1.80
2006,04,17,04,40,1.80
2006,04,17,04,41,1.80
2006,04,17,04,42,1.70
2006,04,17,04,43,1.60
2006,04,17,04,44,1.50
2006,04,17,04,45,1.40
2006,04,17,04,46,1.30
2006,04,17,04,47,1.30
2006,04,17,04,48,1.20
2006,04,17,04,49,1.10
2006,04,17,04,50,1.10
2006,04,17,04,51,1.10
2006,04,17,04,52,1.00
2006,04,17,04,53,1.00
2006,04,17,04,54,1.00
2006,04,17,04,55,1.00
2006,04,17,04,56,1.00
2006,04,17,04,57,1.00
2006,04,17,04,58,1.00
2006,04,17,04,59,1.10
2006,04,17,05,00,1.10
2006,04,17,05,01,1.10
2006,04,17,05,02,1.10
2006,04,17,05,03,1.20
2006,04,17,05,04,1.20
2006,04,17,05,05,1.30
2006,04,17,05,06,1.40
2006,04,17,05,07,1.60
2006,04,17,05,08,1.70
2006,04,17,05,09,1.80
2006,04,17,05,10,1.90
2006,04,17,05,11,2.00
2006,04,17,05,12,2.00
2006,04,17,05,13,2.00
2006,04,17,05,14,2.10
2006,04,17,05,15,2.10
2006,04,17,05,16,2.10
2006,04,17,05,17,2.10
2006,04,17,05,18,2.10
2006,04,17,05,19,2.10
2006,04,17,05,20,2.20
2006,04,17,05,21,2.20
2006,04,17,05,22,2.20
2006,04,17,05,23,2.20
2006,04,17,05,24,2.20
2006,04,17,05,25,2.20
2006,04,17,05,26,2.20
2006,04,17,05,27,2.10
2006,04,17,05,28,2.00
2006,04,17,05,29,2.00
2006,04,17,05,30,1.90
2006,04,17,05,31,1.80
2006,04,17,05,32,1.80
2006,04,17,05,33,1.70
2006,04,17,05,34,1.60
2006,04,17,05,35,1.60
2006,04,17,05,36,1.60
2006,04,17,05,37,1.60
2006,04,17,05,38,1.50
2006,04,17,05,39,1.50
2006,04,17,05,40,1.50
2006,04,17,05,41,1.60
2006,04,17,05,42,1.60
2006,04,17,05,43,1.60
2006,04,17,05,44,1.70
2006,04,17,05,45,1.70
2006,04,17,05,46,1.70
2006,04,17,05,47,1.80
2006,04,17,05,48,1.80
2006,04,17,05,49,1.80
2006,04,17,05,50,1.90
2006,04,17,05,51,1.90
2006,04,17,05,52,2.00
2006,04,17,05,53,2.00
2006,04,17,05,54,2.10
2006,04,17,05,55,2.20
2006,04,17,05,56,2.20
2006,04,17,05,57,2.30
2006,04,17,05,58,2.30
2006,04,17,05,59,2.40
2006,04,17,06,00,2.50
2006,04,17,06,01,2.50
2006,04,17,06,02,2.60
2006,04,17,06,03,2.60
2006,04,17,06,04,2.60
2006,04,17,06,05,2.60
2006,04,17,06,06,2.60
2006,04,17,06,07,2.60
2006,04,17,06,08,2.50
2006,04,17,06,09,2.50
2006,04,17,06,10,2.50
2006,04,17,06,11,2.40
2006,04,17,06,12,2.40
2006,04,17,06,13,2.40
2006,04,17,06,14,2.30
2006,04,17,06,15,2.30
2006,04,17,06,16,2.30
2006,04,17,06,17,2.30
2006,04,17,06,18,2.30
2006,04,17,06,19,2.20
2006,04,17,06,20,2.20
2006,04,17,06,21,2.20
2006,04,17,06,22,2.20
2006,04,17,06,23,2.20
2006,04,17,06,24,2.20
2006,04,17,06,25,2.20
2006,04,17,06,26,2.20
2006,04,17,06,27,2.20
2006,04,17,06,28,2.20
2006,04,17,06,29,2.20
2006,04,17,06,30,2.20
2006,04,17,06,31,2.20
2006,04,17,06,32,2.20
2006,04,17,06,33,2.30
2006,04,17,06,34,2.30
2006,04,17,06,35,2.40
2006,04,17,06,36,2.40
2006,04,17,06,37,2.50
2006,04,17,06,38,2.50
2006,04,17,06,39,2.60
2006,04,17,06,40,2.60
2006,04,17,06,41,2.60
2006,04,17,06,42,2.60
2006,04,17,06,43,2.60
2006,04,17,06,44,2.60
2006,04,17,06,45,2.60
2006,04,17,06,46,2.60
2006,04,17,06,47,2.60
2006,04,17,06,48,2.60
2006,04,17,06,49,2.60
2006,04,17,06,50,2.60
2006,04,17,06,51,2.60
2006,04,17,06,52,2.70
2006,04,17,06,53,2.70
2006,04,17,06,54,2.70
2006,04,17,06,55,2.70
2006,04,17,06,56,2.70
2006,04,17,06,57,2.70
2006,04,17,06,58,2.70
2006,04,17,06,59,2.70
2006,04,17,07,00,2.70
2006,04,17,07,01,2.70
2006,04,17,07,02,2.80
2006,04,17,07,03,2.80
2006,04,17,07,04,2.80
2006,04,17,07,05,2.80
2006,04,17,07,06,2.90
2006,04,17,07,07,2.90
2006,04,17,07,08,2.90
2006,04,17,07,09,2.90
2006,04,17,07,10,2.90
2006,04,17,07,11,2.90
2006,04,17,07,12,2.90
2006,04,17,07,13,2.90
2006,04,17,07,14,2.90
2006,04,17,07,15,2.90
2006,04,17,07,16,2.90
2006,04,17,07,17,2.90
2006,04,17,07,18,2.90
2006,04,17,07,19,2.90
2006,04,17,07,20,3.10
2006,04,17,07,21,3.10
2006,04,17,07,22,3.10
2006,04,17,07,23,3.10
2006,04,17,07,24,3.10
2006,04,17,07,25,3.10
2006,04,17,07,26,3.20
2006,04,17,07,27,3.20
2006,04,17,07,28,3.30
2006,04,17,07,29,3.30
2006,04,17,07,30,3.40
2006,04,17,07,31,3.50
2006,04,17,07,32,3.50
2006,04,17,07,33,3.60
2006,04,17,07,34,3.60
2006,04,17,07,35,3.70
2006,04,17,07,36,3.80
2006,04,17,07,37,3.80
2006,04,17,07,38,3.90
2006,04,17,07,39,4.00
2006,04,17,07,40,4.00
2006,04,17,07,41,4.10
2006,04,17,07,42,4.20
2006,04,17,07,43,4.30
2006,04,17,07,44,4.40
2006,04,17,07,45,4.50
2006,04,17,07,46,4.60
2006,04,17,07,47,4.70
2006,04,17,07,48,4.80
2006,04,17,07,49,4.90
2006,04,17,07,50,5.10
2006,04,17,07,51,5.20
2006,04,17,07,52,5.40
2006,04,17,07,53,5.60
2006,04,17,07,54,5.70
2006,04,17,07,55,5.90
2006,04,17,07,56,6.10
2006,04,17,07,57,6.20
2006,04,17,07,58,6.30
2006,04,17,07,59,6.50
2006,04,17,08,00,6.60
2006,04,17,08,01,6.70
2006,04,17,08,02,6.80
2006,04,17,08,03,6.90
2006,04,17,08,04,7.00
2006,04,17,08,05,7.10
2006,04,17,08,06,7.20
2006,04,17,08,07,7.30
2006,04,17,08,08,7.40
2006,04,17,08,09,7.50
2006,04,17,08,10,7.60
2006,04,17,08,11,7.70
2006,04,17,08,12,7.80
2006,04,17,08,13,7.80
2006,04,17,08,14,7.90
2006,04,17,08,15,8.00
2006,04,17,08,16,8.10
2006,04,17,08,17,8.10
2006,04,17,08,18,8.10
2006,04,17,08,19,8.00
2006,04,17,08,20,8.00
2006,04,17,08,21,7.90
2006,04,17,08,22,7.90
2006,04,17,08,23,7.90
2006,04,17,08,24,7.90
2006,04,17,08,25,8.00
2006,04,17,08,26,7.90
2006,04,17,08,27,7.90
2006,04,17,08,28,7.80
2006,04,17,08,29,7.80
2006,04,17,08,30,7.80
2006,04,17,08,31,7.70
2006,04,17,08,32,7.60
2006,04,17,08,33,7.60
2006,04,17,08,34,7.60
2006,04,17,08,35,7.60
2006,04,17,08,36,7.60
2006,04,17,08,37,7.70
2006,04,17,08,38,7.80
2006,04,17,08,39,7.80
2006,04,17,08,40,7.80
2006,04,17,08,41,7.80
2006,04,17,08,42,7.80
2006,04,17,08,43,7.80
2006,04,17,08,44,7.70
2006,04,17,08,45,7.60
2006,04,17,08,46,7.60
2006,04,17,08,47,7.50
2006,04,17,08,48,7.50
2006,04,17,08,49,7.60
2006,04,17,08,50,7.70
2006,04,17,08,51,7.80
2006,04,17,08,52,7.90
2006,04,17,08,53,8.10
2006,04,17,08,54,8.20
2006,04,17,08,55,8.40
2006,04,17,08,56,8.50
2006,04,17,08,57,8.60
2006,04,17,08,58,8.70
2006,04,17,08,59,8.80
2006,04,17,09,00,8.90
2006,04,17,09,01,8.90
2006,04,17,09,02,8.90
2006,04,17,09,03,8.90
2006,04,17,09,04,8.90
2006,04,17,09,05,9.00
2006,04,17,09,06,8.90
2006,04,17,09,07,8.80
2006,04,17,09,08,8.80
2006,04,17,09,09,8.70
2006,04,17,09,10,8.70
2006,04,17,09,11,8.70
2006,04,17,09,12,8.70
2006,04,17,09,13,8.60
2006,04,17,09,14,8.60
2006,04,17,09,15,8.70
2006,04,17,09,16,8.80
2006,04,17,09,17,8.90
2006,04,17,09,18,9.00
2006,04,17,09,19,9.00
2006,04,17,09,20,9.00
2006,04,17,09,21,9.00
2006,04,17,09,22,8.90
2006,04,17,09,23,8.80
2006,04,17,09,24,8.80
2006,04,17,09,25,8.70
2006,04,17,09,26,8.80
2006,04,17,09,27,8.90
2006,04,17,09,28,8.90
2006,04,17,09,29,9.00
2006,04,17,09,30,9.00
2006,04,17,09,31,9.00
2006,04,17,09,32,9.00
2006,04,17,09,33,8.90
2006,04,17,09,34,8.80
2006,04,17,09,35,8.80
2006,04,17,09,36,8.80
2006,04,17,09,37,8.80
2006,04,17,09,38,8.80
2006,04,17,09,39,8.90
2006,04,17,09,40,9.00
2006,04,17,09,41,9.10
2006,04,17,09,42,9.20
2006,04,17,09,43,9.20
2006,04,17,09,44,9.20
2006,04,17,09,45,9.10
2006,04,17,09,46,9.10
2006,04,17,09,47,9.20
2006,04,17,09,48,9.20
2006,04,17,09,49,9.20
2006,04,17,09,50,9.20
2006,04,17,09,51,9.20
2006,04,17,09,52,9.20
2006,04,17,09,53,9.30
2006,04,17,09,54,9.40
2006,04,17,09,55,9.40
2006,04,17,09,56,9.50
2006,04,17,09,57,9.50
2006,04,17,09,58,9.40
2006,04,17,09,59,9.50
2006,04,17,10,00,9.50
2006,04,17,10,01,9.40
2006,04,17,10,02,9.40
2006,04,17,10,03,9.50
2006,04,17,10,04,9.50
2006,04,17,10,05,9.50
2006,04,17,10,06,9.50
2006,04,17,10,07,9.50
2006,04,17,10,08,9.40
2006,04,17,10,09,9.50
2006,04,17,10,10,9.50
2006,04,17,10,11,9.50
2006,04,17,10,12,9.40
2006,04,17,10,13,9.30
2006,04,17,10,14,9.30
2006,04,17,10,15,9.20
2006,04,17,10,16,9.20
2006,04,17,10,17,9.20
2006,04,17,10,18,9.10
2006,04,17,10,19,9.10
2006,04,17,10,20,9.20
2006,04,17,10,21,9.20
2006,04,17,10,22,9.20
2006,04,17,10,23,9.20
2006,04,17,10,24,9.20
2006,04,17,10,25,9.30
2006,04,17,10,26,9.30
2006,04,17,10,27,9.40
2006,04,17,10,28,9.50
2006,04,17,10,29,9.70
2006,04,17,10,30,9.80
2006,04,17,10,31,9.90
2006,04,17,10,32,9.90
2006,04,17,10,33,10.00
2006,04,17,10,34,10.10
2006,04,17,10,35,10.10
2006,04,17,10,36,10.10
2006,04,17,10,37,10.10
2006,04,17,10,38,10.10
2006,04,17,10,39,10.10
2006,04,17,10,40,10.10
2006,04,17,10,41,10.00
2006,04,17,10,42,9.90
2006,04,17,10,43,9.90
2006,04,17,10,44,9.90
2006,04,17,10,45,9.90
2006,04,17,10,46,9.90
2006,04,17,10,47,9.90
2006,04,17,10,48,10.10
2006,04,17,10,49,10.40
2006,04,17,10,50,10.50
2006,04,17,10,51,10.60
2006,04,17,10,52,10.60
2006,04,17,10,53,10.60
2006,04,17,10,54,10.60
2006,04,17,10,55,10.60
2006,04,17,10,56,10.60
2006,04,17,10,57,10.60
2006,04,17,10,58,10.70
2006,04,17,10,59,10.80
2006,04,17,11,00,10.90
2006,04,17,11,01,11.00
2006,04,17,11,02,11.10
2006,04,17,11,03,11.10
2006,04,17,11,04,11.10
2006,04,17,11,05,11.20
2006,04,17,11,06,11.20
2006,04,17,11,07,11.30
2006,04,17,11,08,11.20
2006,04,17,11,09,11.20
2006,04,17,11,10,11.40
2006,04,17,11,11,11.40
2006,04,17,11,12,11.60
2006,04,17,11,13,11.60
2006,04,17,11,14,11.60
2006,04,17,11,15,11.60
2006,04,17,11,16,11.60
2006,04,17,11,17,11.60
2006,04,17,11,18,11.60
2006,04,17,11,19,11.70
2006,04,17,11,20,11.70
2006,04,17,11,21,11.70
2006,04,17,11,22,11.60
2006,04,17,11,23,11.60
2006,04,17,11,24,11.70
2006,04,17,11,25,11.70
2006,04,17,11,26,11.70
2006,04,17,11,27,11.70
2006,04,17,11,28,11.80
2006,04,17,11,29,11.80
2006,04,17,11,30,12.00
2006,04,17,11,31,12.00
2006,04,17,11,32,11.80
2006,04,17,11,33,11.80
2006,04,17,11,34,11.70
2006,04,17,11,35,11.60
2006,04,17,11,36,11.60
2006,04,17,11,37,11.50
2006,04,17,11,38,11.50
2006,04,17,11,39,11.60
2006,04,17,11,40,11.60
2006,04,17,11,41,11.60
2006,04,17,11,42,11.50
2006,04,17,11,43,11.40
2006,04,17,11,44,11.30
2006,04,17,11,45,11.30
2006,04,17,11,46,11.30
2006,04,17,11,47,11.20
2006,04,17,11,48,11.10
2006,04,17,11,49,11.00
2006,04,17,11,50,10.90
2006,04,17,11,51,10.80
2006,04,17,11,52,10.70
2006,04,17,11,53,10.60
2006,04,17,11,54,10.50
2006,04,17,11,55,10.40
2006,04,17,11,56,10.30
2006,04,17,11,57,10.30
2006,04,17,11,58,10.30
2006,04,17,11,59,10.40
2006,04,17,12,00,10.60
2006,04,17,12,01,10.70
2006,04,17,12,02,10.80
2006,04,17,12,03,10.70
2006,04,17,12,04,10.70
2006,04,17,12,05,10.60
2006,04,17,12,06,10.60
2006,04,17,12,07,10.50
2006,04,17,12,08,10.40
2006,04,17,12,09,10.40
2006,04,17,12,10,10.40
2006,04,17,12,11,10.40
2006,04,17,12,12,10.40
2006,04,17,12,13,10.40
2006,04,17,12,14,10.60
2006,04,17,12,15,10.60
2006,04,17,12,16,10.60
2006,04,17,12,17,10.60
2006,04,17,12,18,10.60
2006,04,17,12,19,10.60
2006,04,17,12,20,10.70
2006,04,17,12,21,10.80
2006,04,17,12,22,10.70
2006,04,17,12,23,10.70
2006,04,17,12,24,10.90
2006,04,17,12,25,10.90
2006,04,17,12,26,11.00
2006,04,17,12,27,11.20
2006,04,17,12,28,11.30
2006,04,17,12,29,11.40
2006,04,17,12,30,11.40
2006,04,17,12,31,11.50
2006,04,17,12,32,11.60
2006,04,17,12,33,11.60
2006,04,17,12,34,11.60
2006,04,17,12,35,11.60
2006,04,17,12,36,11.60
2006,04,17,12,37,11.60
2006,04,17,12,38,11.70
2006,04,17,12,39,11.90
2006,04,17,12,40,12.00
2006,04,17,12,41,11.90
2006,04,17,12,42,11.90
2006,04,17,12,43,11.80
2006,04,17,12,44,11.80
2006,04,17,12,45,11.80
2006,04,17,12,46,11.70
2006,04,17,12,47,11.60
2006,04,17,12,48,11.60
2006,04,17,12,49,11.70
2006,04,17,12,50,11.70
2006,04,17,12,51,11.50
2006,04,17,12,52,11.40
2006,04,17,12,53,11.30
2006,04,17,12,54,11.20
2006,04,17,12,55,11.20
2006,04,17,12,56,11.30
2006,04,17,12,57,11.30
2006,04,17,12,58,11.30
2006,04,17,12,59,11.30
2006,04,17,13,00,11.30
2006,04,17,13,01,11.20
2006,04,17,13,02,11.20
2006,04,17,13,03,11.20
2006,04,17,13,04,11.10
2006,04,17,13,05,11.00
2006,04,17,13,06,10.90
2006,04,17,13,07,10.90
2006,04,17,13,08,10.90
2006,04,17,13,09,10.90
2006,04,17,13,10,10.90
2006,04,17,13,11,10.90
2006,04,17,13,12,10.90
2006,04,17,13,13,10.90
2006,04,17,13,14,10.90
2006,04,17,13,15,11.00
2006,04,17,13,16,11.10
2006,04,17,13,17,11.20
2006,04,17,13,18,11.30
2006,04,17,13,19,11.30
2006,04,17,13,20,11.30
2006,04,17,13,21,11.30
2006,04,17,13,22,11.40
2006,04,17,13,23,11.40
2006,04,17,13,24,11.40
2006,04,17,13,25,11.40
2006,04,17,13,26,11.40
2006,04,17,13,27,11.40
2006,04,17,13,28,11.40
2006,04,17,13,29,11.40
2006,04,17,13,30,11.40
2006,04,17,13,31,11.40
2006,04,17,13,32,11.40
2006,04,17,13,33,11.40
2006,04,17,13,34,11.40
2006,04,17,13,35,11.40
2006,04,17,13,36,11.30
2006,04,17,13,37,11.20
2006,04,17,13,38,11.00
2006,04,17,13,39,10.90
2006,04,17,13,40,10.80
2006,04,17,13,41,10.80
2006,04,17,13,42,10.70
2006,04,17,13,43,10.60
2006,04,17,13,44,10.60
2006,04,17,13,45,10.60
2006,04,17,13,46,10.60
2006,04,17,13,47,10.60
2006,04,17,13,48,10.40
2006,04,17,13,49,10.40
2006,04,17,13,50,10.30
2006,04,17,13,51,10.10
2006,04,17,13,52,9.90
2006,04,17,13,53,9.80
2006,04,17,13,54,9.80
2006,04,17,13,55,9.80
2006,04,17,13,56,9.70
2006,04,17,13,57,9.80
2006,04,17,13,58,9.70
2006,04,17,13,59,9.70
2006,04,17,14,00,9.70
2006,04,17,14,01,9.80
2006,04,17,14,02,9.90
2006,04,17,14,03,9.90
2006,04,17,14,04,10.00
2006,04,17,14,05,10.10
2006,04,17,14,06,10.20
2006,04,17,14,07,10.20
2006,04,17,14,08,10.30
2006,04,17,14,09,10.30
2006,04,17,14,10,10.30
2006,04,17,14,11,10.30
2006,04,17,14,12,10.30
2006,04,17,14,13,10.40
2006,04,17,14,14,10.30
2006,04,17,14,15,10.30
2006,04,17,14,16,10.30
2006,04,17,14,17,10.20
2006,04,17,14,18,10.20
2006,04,17,14,19,10.30
2006,04,17,14,20,10.30
2006,04,17,14,21,10.30
2006,04,17,14,22,10.50
2006,04,17,14,23,10.60
2006,04,17,14,24,10.80
2006,04,17,14,25,11.10
2006,04,17,14,26,11.30
2006,04,17,14,27,11.40
2006,04,17,14,28,11.50
2006,04,17,14,29,11.80
2006,04,17,14,30,11.80
2006,04,17,14,31,11.90
2006,04,17,14,32,11.90
2006,04,17,14,33,12.10
2006,04,17,14,34,12.30
2006,04,17,14,35,12.40
2006,04,17,14,36,12.50
2006,04,17,14,37,12.50
2006,04,17,14,38,12.60
2006,04,17,14,39,12.50
2006,04,17,14,40,12.50
2006,04,17,14,41,12.50
2006,04,17,14,42,12.60
2006,04,17,14,43,12.70
2006,04,17,14,44,12.80
2006,04,17,14,45,12.70
2006,04,17,14,46,12.60
2006,04,17,14,47,12.50
2006,04,17,14,48,12.60
2006,04,17,14,49,12.60
2006,04,17,14,50,12.70
2006,04,17,14,51,12.60
2006,04,17,14,52,12.50
2006,04,17,14,53,12.70
2006,04,17,14,54,12.80
2006,04,17,14,55,12.80
2006,04,17,14,56,12.90
2006,04,17,14,57,12.90
2006,04,17,14,58,12.80
2006,04,17,14,59,12.80
2006,04,17,15,00,12.80
2006,04,17,15,01,12.90
2006,04,17,15,02,13.00
2006,04,17,15,03,13.20
2006,04,17,15,04,13.40
2006,04,17,15,05,13.50
2006,04,17,15,06,13.60
2006,04,17,15,07,13.50
2006,04,17,15,08,13.60
2006,04,17,15,09,13.50
2006,04,17,15,10,13.50
2006,04,17,15,11,13.50
2006,04,17,15,12,13.50
2006,04,17,15,13,13.50
2006,04,17,15,14,13.50
2006,04,17,15,15,13.40
2006,04,17,15,16,13.30
2006,04,17,15,17,13.10
2006,04,17,15,18,13.00
2006,04,17,15,19,12.90
2006,04,17,15,20,13.00
2006,04,17,15,21,13.10
2006,04,17,15,22,13.20
2006,04,17,15,23,13.30
2006,04,17,15,24,13.40
2006,04,17,15,25,13.40
2006,04,17,15,26,13.50
2006,04,17,15,27,13.50
2006,04,17,15,28,13.50
2006,04,17,15,29,13.50
2006,04,17,15,30,13.50
2006,04,17,15,31,13.50
2006,04,17,15,32,13.60
2006,04,17,15,33,13.60
2006,04,17,15,34,13.50
2006,04,17,15,35,13.20
2006,04,17,15,36,13.10
2006,04,17,15,37,13.00
2006,04,17,15,38,12.70
2006,04,17,15,39,12.40
2006,04,17,15,40,12.10
2006,04,17,15,41,12.00
2006,04,17,15,42,11.90
2006,04,17,15,43,11.90
2006,04,17,15,44,11.90
2006,04,17,15,45,12.00
2006,04,17,15,46,12.00
2006,04,17,15,47,11.90
2006,04,17,15,48,11.80
2006,04,17,15,49,11.80
2006,04,17,15,50,11.80
2006,04,17,15,51,11.80
2006,04,17,15,52,11.70
2006,04,17,15,53,11.80
2006,04,17,15,54,11.80
2006,04,17,15,55,11.90
2006,04,17,15,56,11.90
2006,04,17,15,57,11.80
2006,04,17,15,58,11.80
2006,04,17,15,59,11.80
2006,04,17,16,00,11.70
2006,04,17,16,01,11.70
2006,04,17,16,02,11.70
2006,04,17,16,03,11.60
2006,04,17,16,04,11.60
2006,04,17,16,05,11.60
2006,04,17,16,06,11.50
2006,04,17,16,07,11.40
2006,04,17,16,08,11.40
2006,04,17,16,09,11.40
2006,04,17,16,10,11.30
2006,04,17,16,11,11.30
2006,04,17,16,12,11.20
2006,04,17,16,13,11.20
2006,04,17,16,14,11.20
2006,04,17,16,15,11.20
2006,04,17,16,16,11.20
2006,04,17,16,17,11.20
2006,04,17,16,18,11.10
2006,04,17,16,19,11.10
2006,04,17,16,20,11.10
2006,04,17,16,21,11.20
2006,04,17,16,22,11.20
2006,04,17,16,23,11.10
2006,04,17,16,24,11.10
2006,04,17,16,25,11.10
2006,04,17,16,26,11.10
2006,04,17,16,27,11.10
2006,04,17,16,28,11.10
2006,04,17,16,29,11.10
2006,04,17,16,30,11.20
2006,04,17,16,31,11.20
2006,04,17,16,32,11.40
2006,04,17,16,33,11.50
2006,04,17,16,34,11.60
2006,04,17,16,35,11.60
2006,04,17,16,36,11.50
2006,04,17,16,37,11.60
2006,04,17,16,38,11.60
2006,04,17,16,39,11.50
2006,04,17,16,40,11.40
2006,04,17,16,41,11.50
2006,04,17,16,42,11.60
2006,04,17,16,43,11.60
2006,04,17,16,44,11.70
2006,04,17,16,45,11.70
2006,04,17,16,46,11.70
2006,04,17,16,47,11.70
2006,04,17,16,48,11.80
2006,04,17,16,49,11.80
2006,04,17,16,50,11.90
2006,04,17,16,51,12.00
2006,04,17,16,52,12.00
2006,04,17,16,53,12.00
2006,04,17,16,54,12.00
2006,04,17,16,55,11.90
2006,04,17,16,56,11.80
2006,04,17,16,57,11.70
2006,04,17,16,58,11.60
2006,04,17,16,59,11.60
2006,04,17,17,00,11.40
2006,04,17,17,01,11.40
2006,04,17,17,02,11.40
2006,04,17,17,03,11.40
2006,04,17,17,04,11.40
2006,04,17,17,05,11.40
2006,04,17,17,06,11.30
2006,04,17,17,07,11.20
2006,04,17,17,08,11.10
2006,04,17,17,09,11.10
2006,04,17,17,10,11.00
2006,04,17,17,11,10.90
2006,04,17,17,12,11.00
2006,04,17,17,13,11.10
2006,04,17,17,14,11.20
2006,04,17,17,15,11.30
2006,04,17,17,16,11.30
2006,04,17,17,17,11.30
2006,04,17,17,18,11.20
2006,04,17,17,19,11.10
2006,04,17,17,20,11.10
2006,04,17,17,21,11.10
2006,04,17,17,22,11.10
2006,04,17,17,23,11.10
2006,04,17,17,24,11.00
2006,04,17,17,25,11.10
2006,04,17,17,26,11.10
2006,04,17,17,27,11.10
2006,04,17,17,28,11.10
2006,04,17,17,29,11.20
2006,04,17,17,30,11.20
2006,04,17,17,31,11.30
2006,04,17,17,32,11.30
2006,04,17,17,33,11.40
2006,04,17,17,34,11.50
2006,04,17,17,35,11.60
2006,04,17,17,36,11.60
2006,04,17,17,37,11.70
2006,04,17,17,38,11.80
2006,04,17,17,39,11.90
2006,04,17,17,40,12.00
2006,04,17,17,41,12.10
2006,04,17,17,42,12.20
2006,04,17,17,43,12.30
2006,04,17,17,44,12.30
2006,04,17,17,45,12.20
2006,04,17,17,46,12.20
2006,04,17,17,47,12.20